Weather Roundup
Issued by NWS Chicago, IL

Home | Current Version | Previous Version | Graphics & Text | Print | Product List | Glossary On
Versions: 1 2 3 4 5 6 7 8 9 10 11 12 13 14 15 16 17 18 19 20 21 22 23 24 25 26 27 28 29 30 31 32 33 34 35 36 37 38 39 40 41 42 43 44 45 46 47 48 49 50
000
NZUS59 KLOT 301503
HRRLOT

CHICAGO AREA WEATHER ROUNDUP
NATIONAL WEATHER SERVICE CHICAGO/ROMEOVILLE IL
1000 AM CDT SAT APR 30 2016

NOTE: "FAIR" INDICATES FEW OR NO CLOUDS BELOW 12,000 FEET WITH NO
SIGNIFICANT WEATHER AND/OR OBSTRUCTIONS TO VISIBILITY.

* THESE STATIONS ARE NOT UNDER NWS QUALITY CONTROL. THEY ALSO MAY NOT
  REPORT WEATHER SUCH AS PRECIPITATION OR FOG.

ILZ005-006-012>014-019>023-301600-
NORTHEAST ILLINOIS

CITY           SKY/WX    TMP DP  RH WIND       PRES   REMARKS
OHARE          CLOUDY    48  39  71 E13       30.04S
MIDWAY         LGT RAIN  49  40  71 E17       30.03F
AURORA         LGT RAIN  50  43  77 E18       30.00F
LANSING*       LGT RAIN  47  42  81 E9        30.04R
WAUKEGAN       CLOUDY    44  40  85 E9        30.06S
DUPAGE AIRPORT LGT RAIN  49  40  71 E14       30.01F
WHEELING       CLOUDY    47  39  74 E7        30.07S
MORRIS*        LGT RAIN  48  45  88 E16       29.98S
$$

WIZ051-052-058>065-066-070>072-301600-
SOUTHEAST WISCONSIN

CITY           SKY/WX    TMP DP  RH WIND       PRES   REMARKS
MILWAUKEE      CLOUDY    45  39  79 E14       30.10R
KENOSHA*       CLOUDY    45  39  79 E15       30.07S
RACINE*        CLOUDY    45  38  76 E13       30.10R
BURLINGTON     CLOUDY    46  39  76 E13G20    30.07R
WAUKESHA       CLOUDY    45  36  70 E5        30.10R
$$

INZ001>003-010>013-019-020-301600-
NORTHWEST INDIANA

CITY           SKY/WX    TMP DP  RH WIND       PRES   REMARKS
GARY*          LGT RAIN  50  46  87 E14       30.05S
MICHIGAN CITY* NOT AVBL
RENSSELAER*    NOT AVBL
VALPARAISO     LGT RAIN  45  40  82 E13       30.05S
$$

LMZ740>746-301600-
SOUTHERN LAKE MICHIGAN

STATION/POSITION TIME  SKY/WX   TEMP WIND        PRES    VSBY
                                AIR  DIR/SP/G
                 (UTC)          (F)  (DEG/KT/KT) (MB)    (MI)
HARRISON CRIB    1400            46  100/ 16/ 18   N/A
BURNHAM HARBOR   1500            46   70/ 11/ 13   N/A
CALUMET HARBOR   1400            47   60/  8/ 11 1017.1R
BURNS HARBOR     1404            49   90/ 10/ 18 1017.9F
MICHIGAN CITY    1400            48   90/ 13/ 18   N/A
$$

ABBREVIATIONS USED IN REMARKS
   TC - TEMPERATURE IN CELSIUS
  WCI - WIND CHILL INDEX
   HX - HEAT INDEX
  VSB - VISIBILITY
$$




USA.gov is the U.S. government's official web portal to all federal, state and local government web resources and services.